This is the latest recevied weather packets stored in our database for station/object K5OLV. If no packets are shown the sender has not sent any weather packets the latest 10 day(s).
| Time | Temp. | Humidity | Pressure | Rain* | Wind** | Luminosity | Snow |
|---|---|---|---|---|---|---|---|
| 1777914009 | 20.56° C | 56% | 1014 hPa | 0 mm | - | 638 W/m² | - |
| 1777913704 | 20.56° C | 59% | 1014.1 hPa | 0 mm | - | 634 W/m² | - |
| 1777913401 | 20.56° C | 57% | 1014.3 hPa | 0 mm | - | 707 W/m² | - |
| 1777913098 | 20.56° C | 56% | 1014.2 hPa | 0 mm | - | 702 W/m² | - |
| 1777912794 | 20.56° C | 59% | 1014.4 hPa | 0 mm | - | 704 W/m² | - |
| 1777912490 | 21.11° C | 57% | 1014.4 hPa | 0 mm | - | 699 W/m² | - |
| 1777912187 | 20.56° C | 57% | 1014.5 hPa | 0 mm | - | 670 W/m² | - |
| 1777911883 | 20° C | 57% | 1014.5 hPa | 0 mm | - | 730 W/m² | - |
| 1777911580 | 20° C | 58% | 1014.8 hPa | 0 mm | - | 739 W/m² | - |
| 1777911275 | 19.44° C | 58% | 1014.5 hPa | 0 mm | - | 744 W/m² | - |
| 1777910973 | 19.44° C | 58% | 1014.7 hPa | 0 mm | - | 748 W/m² | - |
| 1777910671 | 19.44° C | 60% | 1014.7 hPa | 0 mm | - | 747 W/m² | - |
| 1777910367 | 19.44° C | 59% | 1014.7 hPa | 0 mm | - | 732 W/m² | - |
| 1777910064 | 19.44° C | 58% | 1014.8 hPa | 0 mm | - | 678 W/m² | - |
| 1777909761 | 18.89° C | 57% | 1014.8 hPa | 0 mm | - | 622 W/m² | - |
| 1777909458 | 18.89° C | 57% | 1014.9 hPa | 0 mm | - | 724 W/m² | - |
| 1777909156 | 18.89° C | 59% | 1014.7 hPa | 0 mm | - | 685 W/m² | - |
| 1777908854 | 18.89° C | 57% | 1014.7 hPa | 0 mm | - | 679 W/m² | - |
| 1777908550 | 18.33° C | 59% | 1014.8 hPa | 0 mm | - | 730 W/m² | - |
| 1777908247 | 18.89° C | 57% | 1014.7 hPa | 0 mm | - | 720 W/m² | - |
| 1777907944 | 18.33° C | 57% | 1014.8 hPa | 0 mm | - | 763 W/m² | - |
| 1777907639 | 18.33° C | 59% | 1014.7 hPa | 0 mm | - | 698 W/m² | - |
| 1777907335 | 17.78° C | 59% | 1014.8 hPa | 0 mm | - | 711 W/m² | - |
| 1777907031 | 17.78° C | 57% | 1014.9 hPa | 0 mm | - | 704 W/m² | - |
| 1777906729 | 17.78° C | 57% | 1014.9 hPa | 0 mm | - | 694 W/m² | - |
* Rain latest hour (hover to see other rain measurements)
** Current wind speed in m/s (hover to see current wind gust speed)